SWA3856 KBNA-KCLE

Flight info

Callsign SWA3856
Flight time 1h 5m
Altitude 33000
Route KRSTA4 OLSIE IIU DRUGA ROKNN4
Aircraft B738/M-SADE2E3GIJ4RWZ/LB1D1

Departure

Time 2026-05-06 07:19
Airport Nashville International Airport (KBNA)

Arrival

Time 2026-05-06 08:24
Airport Cleveland Hopkins International Airport (KCLE)
Time Latitude Longitude Altitude Speed Heading
2026-05-06 06:58 36.12861 -86.66897 607 ft 0 kts 223°
2026-05-06 07:09 36.12872 -86.66884 607 ft 2 kts 223°
2026-05-06 07:10 36.12884 -86.66870 607 ft 2 kts 223°
2026-05-06 07:10 36.12896 -86.66857 607 ft 2 kts 216°
2026-05-06 07:10 36.12910 -86.66850 607 ft 2 kts 169°
2026-05-06 07:10 36.12919 -86.66856 607 ft 1 kts 123°
2026-05-06 07:11 36.12921 -86.66861 607 ft 0 kts 119°
2026-05-06 07:13 36.12918 -86.66852 607 ft 5 kts 119°
2026-05-06 07:14 36.12886 -86.66784 607 ft 13 kts 125°
2026-05-06 07:14 36.12795 -86.66751 607 ft 15 kts 216°
2026-05-06 07:14 36.12717 -86.66834 607 ft 15 kts 223°
2026-05-06 07:14 36.12645 -86.66916 607 ft 14 kts 223°
2026-05-06 07:15 36.12628 -86.67011 607 ft 13 kts 310°
2026-05-06 07:15 36.12689 -86.67096 607 ft 13 kts 316°
2026-05-06 07:15 36.12755 -86.67183 607 ft 14 kts 311°
2026-05-06 07:15 36.12811 -86.67276 607 ft 13 kts 279°
2026-05-06 07:16 36.12769 -86.67370 607 ft 13 kts 226°
2026-05-06 07:16 36.12704 -86.67438 607 ft 12 kts 214°
2026-05-06 07:16 36.12634 -86.67493 607 ft 12 kts 212°
2026-05-06 07:16 36.12568 -86.67551 607 ft 12 kts 222°
2026-05-06 07:17 36.12500 -86.67627 607 ft 13 kts 218°
2026-05-06 07:17 36.12421 -86.67683 607 ft 13 kts 201°
2026-05-06 07:17 36.12361 -86.67745 607 ft 12 kts 281°
2026-05-06 07:17 36.12377 -86.67845 607 ft 12 kts 287°
2026-05-06 07:18 36.12401 -86.67932 607 ft 7 kts 289°
2026-05-06 07:18 36.12392 -86.67969 607 ft 0 kts 204°
2026-05-06 07:18 36.12385 -86.67973 607 ft 7 kts 204°
2026-05-06 07:18 36.12099 -86.68087 607 ft 85 kts 197°
2026-05-06 07:19 36.11283 -86.68415 609 ft 158 kts 197°
2026-05-06 07:19 36.10124 -86.68849 1221 ft 181 kts 197°
2026-05-06 07:19 36.08900 -86.69274 2368 ft 180 kts 198°
2026-05-06 07:19 36.07804 -86.69890 3391 ft 177 kts 216°
2026-05-06 07:20 36.07078 -86.71208 3914 ft 201 kts 248°
2026-05-06 07:20 36.06828 -86.72902 4868 ft 199 kts 255°
2026-05-06 07:20 36.06671 -86.74603 5804 ft 199 kts 258°
2026-05-06 07:20 36.06587 -86.76311 6608 ft 204 kts 264°
2026-05-06 07:21 36.06778 -86.78085 6898 ft 212 kts 274°
2026-05-06 07:21 36.07109 -86.79870 7003 ft 215 kts 276°
2026-05-06 07:21 36.07485 -86.81670 7004 ft 216 kts 276°
2026-05-06 07:21 36.07859 -86.83473 6989 ft 216 kts 276°
2026-05-06 07:22 36.08226 -86.85251 6982 ft 214 kts 276°
2026-05-06 07:22 36.08878 -86.86943 6964 ft 226 kts 301°
2026-05-06 07:22 36.10208 -86.88088 7037 ft 242 kts 331°
2026-05-06 07:22 36.11933 -86.88329 7350 ft 264 kts
2026-05-06 07:23 36.13688 -86.87720 8276 ft 265 kts 15°
2026-05-06 07:23 36.15400 -86.86814 9207 ft 269 kts 20°
2026-05-06 07:23 36.17126 -86.85939 10148 ft 267 kts 14°
2026-05-06 07:23 36.18898 -86.85249 11042 ft 269 kts
2026-05-06 07:24 36.20744 -86.84661 11793 ft 278 kts
2026-05-06 07:24 36.22681 -86.84104 12369 ft 296 kts
2026-05-06 07:24 36.24761 -86.83506 12886 ft 316 kts
2026-05-06 07:24 36.26973 -86.82866 13350 ft 337 kts
2026-05-06 07:25 36.29310 -86.82185 13800 ft 357 kts
2026-05-06 07:25 36.31748 -86.81411 14530 ft 370 kts 12°
2026-05-06 07:25 36.34115 -86.80024 15449 ft 382 kts 26°
2026-05-06 07:25 36.36225 -86.77908 16360 ft 393 kts 39°
2026-05-06 07:26 36.38111 -86.75425 17209 ft 400 kts 44°
2026-05-06 07:26 36.39953 -86.72788 18038 ft 405 kts 45°
2026-05-06 07:26 36.41770 -86.70184 18828 ft 409 kts 45°
2026-05-06 07:26 36.43670 -86.67498 19597 ft 414 kts 44°
2026-05-06 07:27 36.45619 -86.64766 20385 ft 418 kts 44°
2026-05-06 07:27 36.47527 -86.62097 21098 ft 423 kts 44°
2026-05-06 07:27 36.49494 -86.59349 21796 ft 427 kts 44°
2026-05-06 07:27 36.51489 -86.56562 22466 ft 432 kts 44°
2026-05-06 07:28 36.53489 -86.53767 23112 ft 436 kts 43°
2026-05-06 07:28 36.55533 -86.50948 23742 ft 438 kts 40°
2026-05-06 07:28 36.60323 -86.46368 24940 ft 433 kts 23°
2026-05-06 07:29 36.63028 -86.44708 25533 ft 431 kts 16°
2026-05-06 07:29 36.65790 -86.43354 26102 ft 432 kts 13°
2026-05-06 07:29 36.68595 -86.41973 26655 ft 437 kts 14°
2026-05-06 07:29 36.71421 -86.40530 27193 ft 440 kts 14°
2026-05-06 07:30 36.74245 -86.38993 27711 ft 447 kts 17°
2026-05-06 07:30 36.77040 -86.37234 28227 ft 452 kts 19°
2026-05-06 07:30 36.79831 -86.35370 28691 ft 456 kts 19°
2026-05-06 07:30 36.82661 -86.33493 29194 ft 458 kts 19°
2026-05-06 07:31 36.85490 -86.31635 29632 ft 461 kts 18°
2026-05-06 07:31 36.88319 -86.29789 30047 ft 465 kts 18°
2026-05-06 07:31 36.91197 -86.27916 30462 ft 468 kts 18°
2026-05-06 07:31 36.94091 -86.26035 30898 ft 469 kts 17°
2026-05-06 07:32 36.96986 -86.24179 31390 ft 469 kts 17°
2026-05-06 07:32 36.99890 -86.22308 31937 ft 468 kts 17°
2026-05-06 07:32 37.02776 -86.20436 32396 ft 468 kts 16°
2026-05-06 07:32 37.05680 -86.18547 32722 ft 472 kts 16°
2026-05-06 07:33 37.11529 -86.14731 32810 ft 473 kts 16°
2026-05-06 07:33 37.17321 -86.10947 32816 ft 471 kts 16°
2026-05-06 07:34 37.23127 -86.07150 32816 ft 472 kts 16°
2026-05-06 07:34 37.29043 -86.03729 32817 ft 466 kts 12°
2026-05-06 07:35 37.34993 -86.00447 32817 ft 467 kts 12°
2026-05-06 07:35 37.40915 -85.97130 32816 ft 465 kts 12°
2026-05-06 07:36 37.46833 -85.93795 32814 ft 465 kts 12°
2026-05-06 07:36 37.51739 -85.91023 32813 ft 466 kts 12°
2026-05-06 07:37 37.58637 -85.87142 32810 ft 466 kts 12°
2026-05-06 07:37 37.64569 -85.83794 32809 ft 467 kts 12°
2026-05-06 07:38 37.69498 -85.81002 32809 ft 467 kts 12°
2026-05-06 07:38 37.75418 -85.77640 32807 ft 467 kts 12°
2026-05-06 07:39 37.81346 -85.74271 32804 ft 466 kts 12°
2026-05-06 07:39 37.87277 -85.70906 32804 ft 467 kts 12°
2026-05-06 07:40 37.93209 -85.67513 32809 ft 467 kts 12°
2026-05-06 07:40 37.98786 -85.64315 32810 ft 467 kts 13°
2026-05-06 07:41 38.04741 -85.60896 32817 ft 468 kts 13°
2026-05-06 07:41 38.10587 -85.57194 32819 ft 478 kts 20°
2026-05-06 07:42 38.16078 -85.52247 32826 ft 488 kts 27°
2026-05-06 07:42 38.21442 -85.46930 32830 ft 488 kts 27°
2026-05-06 07:43 38.26800 -85.41660 32827 ft 487 kts 27°
2026-05-06 07:43 38.32135 -85.36424 32825 ft 486 kts 27°
2026-05-06 07:44 38.37499 -85.31160 32822 ft 486 kts 26°
2026-05-06 07:44 38.42881 -85.25936 32827 ft 485 kts 26°
2026-05-06 07:45 38.48237 -85.20702 32829 ft 486 kts 26°
2026-05-06 07:45 38.53591 -85.15447 32832 ft 484 kts 26°
2026-05-06 07:46 38.58933 -85.10191 32837 ft 484 kts 26°
2026-05-06 07:46 38.64234 -85.04962 32837 ft 484 kts 26°
2026-05-06 07:47 38.69570 -84.99691 32837 ft 485 kts 26°
2026-05-06 07:47 38.74960 -84.94358 32836 ft 491 kts 27°
2026-05-06 07:48 38.80346 -84.89012 32842 ft 485 kts 26°
2026-05-06 07:48 38.85636 -84.83749 32834 ft 487 kts 26°
2026-05-06 07:49 38.91010 -84.78396 32828 ft 488 kts 26°
2026-05-06 07:49 38.96306 -84.73111 32834 ft 489 kts 27°
2026-05-06 07:50 39.01658 -84.67751 32833 ft 486 kts 26°
2026-05-06 07:50 39.06971 -84.62443 32833 ft 488 kts 27°
2026-05-06 07:51 39.12281 -84.57101 32838 ft 488 kts 27°
2026-05-06 07:51 39.17651 -84.51703 32844 ft 489 kts 27°
2026-05-06 07:52 39.23023 -84.46288 32853 ft 491 kts 26°
2026-05-06 07:52 39.28389 -84.40865 32856 ft 489 kts 27°
2026-05-06 07:53 39.33743 -84.35453 32861 ft 488 kts 27°
2026-05-06 07:53 39.38981 -84.30139 32863 ft 483 kts 26°
2026-05-06 07:54 39.44356 -84.24677 32855 ft 486 kts 26°
2026-05-06 07:54 39.49675 -84.19302 32851 ft 486 kts 27°
2026-05-06 07:55 39.54923 -84.13940 32852 ft 485 kts 26°
2026-05-06 07:55 39.60216 -84.08531 32649 ft 490 kts 28°
2026-05-06 07:56 39.62867 -84.05831 32400 ft 473 kts 26°
2026-05-06 07:56 39.65401 -84.03174 32139 ft 463 kts 28°
2026-05-06 07:56 39.67888 -84.00633 31884 ft 450 kts 26°
2026-05-06 07:56 39.70324 -83.98101 31631 ft 443 kts 29°
2026-05-06 07:57 39.72652 -83.95517 31379 ft 436 kts 30°
2026-05-06 07:57 39.74926 -83.92972 31128 ft 428 kts 30°
2026-05-06 07:57 39.77173 -83.90464 30876 ft 422 kts 30°
2026-05-06 07:57 39.79371 -83.88014 30629 ft 423 kts 31°
2026-05-06 07:58 39.81610 -83.85521 30380 ft 426 kts 31°
2026-05-06 07:58 39.83867 -83.83009 30132 ft 429 kts 31°
2026-05-06 07:58 39.86147 -83.80469 29881 ft 431 kts 32°
2026-05-06 07:58 39.88419 -83.77936 29631 ft 431 kts 32°
2026-05-06 07:59 39.90704 -83.75388 29381 ft 432 kts 32°
2026-05-06 07:59 39.92993 -83.72834 29130 ft 433 kts 32°
2026-05-06 07:59 39.95293 -83.70313 28880 ft 433 kts 32°
2026-05-06 07:59 39.97608 -83.67769 28629 ft 434 kts 32°
2026-05-06 08:00 39.99913 -83.65210 28379 ft 435 kts 33°
2026-05-06 08:00 40.06005 -83.58391 27739 ft 460 kts 34°
2026-05-06 08:01 40.14111 -83.49281 26915 ft 468 kts 34°
2026-05-06 08:01 40.16585 -83.46496 26665 ft 469 kts 34°
2026-05-06 08:02 40.19055 -83.43699 26414 ft 471 kts 35°
2026-05-06 08:02 40.21464 -83.40784 26164 ft 473 kts 38°
2026-05-06 08:02 40.23824 -83.37767 25914 ft 474 kts 39°
2026-05-06 08:02 40.26189 -83.34762 25664 ft 475 kts 38°
2026-05-06 08:03 40.28591 -83.31768 25413 ft 476 kts 38°
2026-05-06 08:03 40.30983 -83.28775 25164 ft 476 kts 38°
2026-05-06 08:03 40.33339 -83.25823 24914 ft 468 kts 39°
2026-05-06 08:03 40.35709 -83.22840 24659 ft 463 kts 39°
2026-05-06 08:04 40.37987 -83.19971 24412 ft 459 kts 39°
2026-05-06 08:04 40.40282 -83.17079 24134 ft 456 kts 39°
2026-05-06 08:04 40.42551 -83.14218 23822 ft 447 kts 39°
2026-05-06 08:04 40.44783 -83.11402 23513 ft 437 kts 39°
2026-05-06 08:05 40.46966 -83.08652 23130 ft 433 kts 39°
2026-05-06 08:05 40.49138 -83.05906 22890 ft 433 kts 39°
2026-05-06 08:05 40.51346 -83.03142 22510 ft 440 kts 39°
2026-05-06 08:05 40.53533 -83.00404 22204 ft 439 kts 39°
2026-05-06 08:06 40.55727 -82.97649 21902 ft 437 kts 39°
2026-05-06 08:06 40.57934 -82.94875 21601 ft 434 kts 39°
2026-05-06 08:06 40.60116 -82.92127 21305 ft 432 kts 39°
2026-05-06 08:06 40.62292 -82.89385 21009 ft 431 kts 39°
2026-05-06 08:07 40.64446 -82.86668 20720 ft 429 kts 40°
2026-05-06 08:07 40.66567 -82.83991 20433 ft 426 kts 40°
2026-05-06 08:07 40.68738 -82.81249 20137 ft 425 kts 40°
2026-05-06 08:07 40.70852 -82.78606 19853 ft 423 kts 39°
2026-05-06 08:08 40.73000 -82.75948 19564 ft 421 kts 39°
2026-05-06 08:08 40.75116 -82.73294 19277 ft 419 kts 40°
2026-05-06 08:08 40.77210 -82.70649 18994 ft 417 kts 40°
2026-05-06 08:08 40.79308 -82.67989 18709 ft 416 kts 40°
2026-05-06 08:09 40.81388 -82.65345 18427 ft 414 kts 40°
2026-05-06 08:09 40.83444 -82.62729 18149 ft 413 kts 40°
2026-05-06 08:09 40.85505 -82.60104 17869 ft 411 kts 40°
2026-05-06 08:09 40.87558 -82.57488 17592 ft 409 kts 40°
2026-05-06 08:10 40.89613 -82.54869 17313 ft 408 kts 41°
2026-05-06 08:10 40.91649 -82.52275 17038 ft 405 kts 41°
2026-05-06 08:10 40.93654 -82.49715 16839 ft 403 kts 41°
2026-05-06 08:10 40.95689 -82.47138 16374 ft 401 kts 41°
2026-05-06 08:11 40.97663 -82.44620 15863 ft 383 kts 41°
2026-05-06 08:11 40.99535 -82.42227 15390 ft 364 kts 41°
2026-05-06 08:11 41.01325 -82.39936 14942 ft 353 kts 41°
2026-05-06 08:11 41.03075 -82.37704 14508 ft 354 kts 41°
2026-05-06 08:12 41.04847 -82.35427 14163 ft 352 kts 41°
2026-05-06 08:12 41.06606 -82.33226 14003 ft 343 kts 39°
2026-05-06 08:12 41.08381 -82.31153 13815 ft 336 kts 38°
2026-05-06 08:12 41.10136 -82.29110 13536 ft 334 kts 39°
2026-05-06 08:13 41.11890 -82.27102 13228 ft 332 kts 38°
2026-05-06 08:13 41.13601 -82.25134 12911 ft 331 kts 38°
2026-05-06 08:13 41.15369 -82.23091 12620 ft 329 kts 38°
2026-05-06 08:13 41.17065 -82.21129 12299 ft 325 kts 38°
2026-05-06 08:14 41.18747 -82.19183 11765 ft 321 kts 39°
2026-05-06 08:14 41.20444 -82.17222 11016 ft 324 kts 38°
2026-05-06 08:14 41.22133 -82.15258 10267 ft 323 kts 40°
2026-05-06 08:14 41.23702 -82.13119 9514 ft 322 kts 47°
2026-05-06 08:15 41.25124 -82.10825 8762 ft 319 kts 50°
2026-05-06 08:15 41.26529 -82.08567 8011 ft 315 kts 49°
2026-05-06 08:15 41.27909 -82.06385 7421 ft 306 kts 49°
2026-05-06 08:15 41.29400 -82.04450 6970 ft 289 kts 31°
2026-05-06 08:16 41.31206 -82.03542 6539 ft 272 kts
2026-05-06 08:16 41.33034 -82.03807 6117 ft 261 kts 334°
2026-05-06 08:16 41.34465 -82.05106 5698 ft 249 kts 306°
2026-05-06 08:16 41.35199 -82.07151 5277 ft 241 kts 277°
2026-05-06 08:17 41.35249 -82.09338 4866 ft 241 kts 265°
2026-05-06 08:17 41.35132 -82.11575 4442 ft 243 kts 264°
2026-05-06 08:17 41.34959 -82.13790 4159 ft 239 kts 257°
2026-05-06 08:17 41.34196 -82.15687 4041 ft 230 kts 227°
2026-05-06 08:18 41.32827 -82.16672 4006 ft 224 kts 195°
2026-05-06 08:18 41.31313 -82.16482 3988 ft 221 kts 162°
2026-05-06 08:18 41.30135 -82.15242 3979 ft 215 kts 134°
2026-05-06 08:18 41.29292 -82.13673 3996 ft 208 kts 128°
2026-05-06 08:19 41.28488 -82.12068 4007 ft 211 kts 128°
2026-05-06 08:19 41.27667 -82.10433 4056 ft 211 kts 128°
2026-05-06 08:19 41.27156 -82.08599 3994 ft 218 kts 93°
2026-05-06 08:19 41.27627 -82.06760 3993 ft 206 kts 57°
2026-05-06 08:20 41.28498 -82.05305 4023 ft 199 kts 48°
2026-05-06 08:20 41.29410 -82.03951 3927 ft 194 kts 46°
2026-05-06 08:20 41.30282 -82.02620 3723 ft 191 kts 47°
2026-05-06 08:20 41.31154 -82.01266 3454 ft 189 kts 47°
2026-05-06 08:21 41.31998 -81.99944 3198 ft 186 kts 47°
2026-05-06 08:21 41.32820 -81.98653 2954 ft 185 kts 47°
2026-05-06 08:21 41.33651 -81.97345 2705 ft 186 kts 47°
2026-05-06 08:21 41.34485 -81.96029 2465 ft 187 kts 47°
2026-05-06 08:22 41.35323 -81.94709 2221 ft 184 kts 48°
2026-05-06 08:22 41.36124 -81.93445 2001 ft 170 kts 49°
2026-05-06 08:22 41.36855 -81.92292 1760 ft 160 kts 48°
2026-05-06 08:22 41.37557 -81.91185 1538 ft 150 kts 48°
2026-05-06 08:23 41.38213 -81.90149 1345 ft 143 kts 48°
2026-05-06 08:23 41.38849 -81.89146 1170 ft 141 kts 48°
2026-05-06 08:23 41.39483 -81.88132 996 ft 143 kts 47°
2026-05-06 08:23 41.40129 -81.87123 826 ft 141 kts 47°
2026-05-06 08:24 41.40696 -81.86228 808 ft 115 kts 41°
2026-05-06 08:24 41.41057 -81.85665 807 ft 41 kts 46°
2026-05-06 08:24 41.41209 -81.85426 807 ft 28 kts 52°
2026-05-06 08:24 41.41277 -81.85246 807 ft 20 kts 101°
2026-05-06 08:25 41.41249 -81.85113 807 ft 14 kts 72°
2026-05-06 08:25 41.41319 -81.85029 807 ft 13 kts 65°
2026-05-06 08:25 41.41277 -81.84930 807 ft 13 kts 135°
2026-05-06 08:25 41.41213 -81.84851 807 ft 12 kts 140°
2026-05-06 08:26 41.41148 -81.84782 807 ft 12 kts 142°
2026-05-06 08:26 41.41090 -81.84710 807 ft 11 kts 111°
2026-05-06 08:26 41.41084 -81.84612 807 ft 11 kts 124°
2026-05-06 08:26 41.41029 -81.84548 807 ft 10 kts 140°
2026-05-06 08:27 41.40975 -81.84487 807 ft 10 kts 140°
2026-05-06 08:27 41.40925 -81.84428 807 ft 10 kts 127°
2026-05-06 08:27 41.40951 -81.84373 807 ft 9 kts
2026-05-06 08:27 41.41013 -81.84369 807 ft 9 kts
2026-05-06 08:28 41.41058 -81.84329 807 ft 8 kts 82°
2026-05-06 08:28 41.41055 -81.84253 807 ft 8 kts 95°
2026-05-06 08:28 41.41076 -81.84194 807 ft 8 kts 27°
2026-05-06 08:28 41.41102 -81.84185 807 ft 2 kts 12°
2026-05-06 08:29 41.41106 -81.84184 807 ft 0 kts 10°